Time,TemperatureF,DewpointF,PressureIn,WindDirection,WindDirectionDegrees,WindSpeedMPH,WindSpeedGustMPH,Humidity,HourlyPrecipIn,Conditions,Clouds,dailyrainin,SoftwareType,DateUTC
2013-08-13 00:01:00,66.9,64.2,29.88,SW,225,0.0,0.0,91,0.00,,---,0.00,VWS V14.01,2013-08-13 04:01:00,
2013-08-13 00:06:00,66.9,64.2,29.88,SE,135,5.4,5.4,91,0.00,,---,0.00,VWS V14.01,2013-08-13 04:06:00,
2013-08-13 00:11:00,66.9,64.5,29.88,South,180,0.0,0.0,92,0.00,,---,0.00,VWS V14.01,2013-08-13 04:11:00,
2013-08-13 00:16:00,66.9,64.5,29.88,SW,225,0.0,2.2,92,0.00,,---,0.00,VWS V14.01,2013-08-13 04:16:00,
2013-08-13 00:21:00,66.9,64.5,29.88,WSW,248,0.0,0.0,92,0.00,,---,0.00,VWS V14.01,2013-08-13 04:21:00,
2013-08-13 00:26:00,66.9,64.5,29.88,NW,315,0.0,2.7,92,0.00,,---,0.00,VWS V14.01,2013-08-13 04:26:00,
2013-08-13 00:31:00,66.9,64.2,29.88,SW,225,0.0,0.0,91,0.00,,---,0.00,VWS V14.01,2013-08-13 04:31:00,
2013-08-13 00:36:00,66.9,64.2,29.88,East,90,0.0,4.5,91,0.00,,---,0.00,VWS V14.01,2013-08-13 04:36:00,
2013-08-13 00:41:00,67.1,64.4,29.85,ESE,112,0.0,5.4,91,0.00,,---,0.00,VWS V14.01,2013-08-13 04:41:00,
2013-08-13 00:46:00,67.1,64.4,29.85,SW,225,0.0,0.0,91,0.00,,---,0.00,VWS V14.01,2013-08-13 04:46:00,
2013-08-13 00:51:00,67.3,64.6,29.85,SW,225,0.0,0.0,91,0.00,,---,0.00,VWS V14.01,2013-08-13 04:51:00,
2013-08-13 00:56:00,67.3,64.6,29.85,South,180,3.6,3.6,91,0.00,,---,0.00,VWS V14.01,2013-08-13 04:56:00,
2013-08-13 01:01:00,67.5,64.8,29.85,NW,315,3.1,4.0,91,0.00,,---,0.00,VWS V14.01,2013-08-13 05:01:00,
2013-08-13 01:06:00,66.6,63.9,29.85,South,180,2.2,4.9,91,0.09,,---,0.09,VWS V14.01,2013-08-13 05:06:00,
2013-08-13 01:11:00,64.0,61.7,29.91,West,270,4.9,8.3,92,0.34,,---,0.34,VWS V14.01,2013-08-13 05:11:00,
2013-08-13 01:16:00,63.1,60.5,29.91,SW,225,3.6,4.9,91,0.42,,---,0.42,VWS V14.01,2013-08-13 05:16:00,
2013-08-13 01:21:00,63.5,60.5,29.91,West,270,3.1,3.6,90,0.42,,---,0.42,VWS V14.01,2013-08-13 05:21:00,
2013-08-13 01:26:00,64.4,61.1,29.88,NNW,338,3.1,4.0,89,0.46,,---,0.46,VWS V14.01,2013-08-13 05:26:00,
2013-08-13 01:31:00,64.8,61.5,29.88,East,90,0.0,3.1,89,0.46,,---,0.46,VWS V14.01,2013-08-13 05:31:00,
2013-08-13 01:36:00,65.3,62.0,29.88,ESE,112,3.1,4.0,89,0.50,,---,0.50,VWS V14.01,2013-08-13 05:36:00,
2013-08-13 01:41:00,65.5,62.2,29.88,NE,45,0.0,0.0,89,0.50,,---,0.50,VWS V14.01,2013-08-13 05:41:00,
2013-08-13 01:46:00,65.5,62.2,29.88,SW,225,0.0,2.7,89,0.50,,---,0.50,VWS V14.01,2013-08-13 05:46:00,
2013-08-13 01:51:00,65.5,62.2,29.88,North,0,0.0,0.0,89,0.50,,---,0.50,VWS V14.01,2013-08-13 05:51:00,
2013-08-13 01:56:00,65.5,62.2,29.88,East,90,0.0,0.0,89,0.50,,---,0.50,VWS V14.01,2013-08-13 05:56:00,
2013-08-13 02:01:00,65.5,62.2,29.88,ENE,68,0.0,0.0,89,0.50,,---,0.50,VWS V14.01,2013-08-13 06:01:00,
2013-08-13 02:06:00,65.5,62.2,29.88,South,180,0.0,0.0,89,0.41,,---,0.50,VWS V14.01,2013-08-13 06:06:00,
2013-08-13 02:11:00,65.5,62.2,29.88,South,180,0.0,0.0,89,0.16,,---,0.50,VWS V14.01,2013-08-13 06:11:00,
2013-08-13 02:16:00,65.5,62.2,29.88,SE,135,0.0,0.0,89,0.12,,---,0.54,VWS V14.01,2013-08-13 06:16:00,
2013-08-13 02:21:00,65.7,62.3,29.88,NNE,22,0.0,0.0,89,0.12,,---,0.54,VWS V14.01,2013-08-13 06:21:00,
2013-08-13 02:26:00,65.5,62.2,29.88,SSW,202,0.0,0.0,89,0.08,,---,0.54,VWS V14.01,2013-08-13 06:26:00,
2013-08-13 02:31:00,65.7,62.3,29.88,SE,135,0.0,0.0,89,0.13,,---,0.59,VWS V14.01,2013-08-13 06:31:00,
2013-08-13 02:36:00,65.5,62.2,29.88,SE,135,0.0,0.0,89,0.13,,---,0.59,VWS V14.01,2013-08-13 06:36:00,
2013-08-13 02:41:00,65.5,62.2,29.88,NW,315,0.0,0.0,89,0.13,,---,0.63,VWS V14.01,2013-08-13 06:41:00,
2013-08-13 02:46:00,65.5,62.2,29.88,NW,315,0.0,0.0,89,0.13,,---,0.63,VWS V14.01,2013-08-13 06:46:00,
2013-08-13 02:51:00,65.5,62.2,29.88,NW,315,0.0,0.0,89,0.13,,---,0.63,VWS V14.01,2013-08-13 06:51:00,
2013-08-13 02:56:00,65.5,62.2,29.88,NW,315,0.0,0.0,89,0.17,,---,0.67,VWS V14.01,2013-08-13 06:56:00,
2013-08-13 03:01:00,65.5,62.2,29.88,NW,315,0.0,0.0,89,0.17,,---,0.67,VWS V14.01,2013-08-13 07:01:00,
2013-08-13 03:06:00,65.5,62.2,29.88,NW,315,0.0,0.0,89,0.21,,---,0.71,VWS V14.01,2013-08-13 07:06:00,
2013-08-13 03:11:00,65.3,62.0,29.88,NW,315,0.0,0.0,89,0.21,,---,0.71,VWS V14.01,2013-08-13 07:11:00,
2013-08-13 03:16:00,65.3,62.0,29.88,NW,315,0.0,0.0,89,0.17,,---,0.71,VWS V14.01,2013-08-13 07:16:00,
2013-08-13 03:21:00,65.1,61.8,29.88,NW,315,0.0,0.0,89,0.17,,---,0.71,VWS V14.01,2013-08-13 07:21:00,
2013-08-13 03:26:00,65.1,61.8,29.85,SW,225,0.0,0.0,89,0.17,,---,0.71,VWS V14.01,2013-08-13 07:26:00,
2013-08-13 03:31:00,64.9,61.6,29.85,South,180,0.0,0.0,89,0.12,,---,0.71,VWS V14.01,2013-08-13 07:31:00,
2013-08-13 03:36:00,64.9,61.6,29.85,SSW,202,0.0,0.0,89,0.12,,---,0.71,VWS V14.01,2013-08-13 07:36:00,
2013-08-13 03:41:00,64.8,61.5,29.85,SSW,202,0.0,0.0,89,0.08,,---,0.71,VWS V14.01,2013-08-13 07:41:00,
2013-08-13 03:46:00,64.8,61.5,29.85,SW,225,0.0,0.0,89,0.08,,---,0.71,VWS V14.01,2013-08-13 07:46:00,
2013-08-13 03:51:00,64.6,61.3,29.85,SSW,202,0.0,0.0,89,0.08,,---,0.71,VWS V14.01,2013-08-13 07:51:00,
2013-08-13 03:56:00,64.6,61.3,29.85,SSW,202,0.0,0.0,89,0.04,,---,0.71,VWS V14.01,2013-08-13 07:56:00,
2013-08-13 04:01:00,64.4,61.1,29.85,SSW,202,0.0,0.0,89,0.04,,---,0.71,VWS V14.01,2013-08-13 08:01:00,
2013-08-13 04:06:00,64.4,61.1,29.85,South,180,0.0,0.0,89,0.04,,---,0.71,VWS V14.01,2013-08-13 08:06:00,
2013-08-13 04:11:00,64.4,61.1,29.85,SW,225,0.0,0.0,89,0.00,,---,0.71,VWS V14.01,2013-08-13 08:11:00,
2013-08-13 04:16:00,64.4,61.1,29.85,SW,225,0.0,0.0,89,0.00,,---,0.71,VWS V14.01,2013-08-13 08:16:00,
2013-08-13 04:21:00,64.4,61.1,29.85,SSW,202,0.0,0.0,89,0.00,,---,0.71,VWS V14.01,2013-08-13 08:21:00,
2013-08-13 04:26:00,64.2,61.2,29.85,SW,225,0.0,0.0,90,0.00,,---,0.71,VWS V14.01,2013-08-13 08:26:00,
2013-08-13 04:31:00,64.2,61.2,29.85,SW,225,0.0,0.0,90,0.00,,---,0.71,VWS V14.01,2013-08-13 08:31:00,
2013-08-13 04:36:00,64.2,61.2,29.85,SW,225,0.0,0.0,90,0.00,,---,0.71,VWS V14.01,2013-08-13 08:36:00,
2013-08-13 04:41:00,64.2,60.9,29.82,SSW,202,0.0,0.0,89,0.00,,---,0.71,VWS V14.01,2013-08-13 08:41:00,
2013-08-13 04:46:00,64.2,60.9,29.82,SSW,202,0.0,0.0,89,0.00,,---,0.71,VWS V14.01,2013-08-13 08:46:00,
2013-08-13 04:51:00,64.2,60.9,29.82,SW,225,0.0,0.0,89,0.00,,---,0.71,VWS V14.01,2013-08-13 08:51:00,
2013-08-13 04:56:00,64.0,60.7,29.85,SW,225,0.0,0.0,89,0.00,,---,0.71,VWS V14.01,2013-08-13 08:56:00,
2013-08-13 05:01:00,63.7,60.4,29.85,SW,225,0.0,0.0,89,0.00,,---,0.71,VWS V14.01,2013-08-13 09:01:00,
2013-08-13 05:06:00,63.7,60.4,29.85,SW,225,0.0,0.0,89,0.00,,---,0.71,VWS V14.01,2013-08-13 09:06:00,
2013-08-13 05:11:00,63.5,60.2,29.85,SW,225,0.0,0.0,89,0.00,,---,0.71,VWS V14.01,2013-08-13 09:11:00,
2013-08-13 05:16:00,63.3,60.0,29.85,SW,225,0.0,0.0,89,0.00,,---,0.71,VWS V14.01,2013-08-13 09:16:00,
2013-08-13 05:21:00,63.5,60.2,29.85,SW,225,0.0,0.0,89,0.00,,---,0.71,VWS V14.01,2013-08-13 09:21:00,
2013-08-13 05:26:00,63.5,60.2,29.85,SW,225,0.0,0.0,89,0.00,,---,0.71,VWS V14.01,2013-08-13 09:26:00,
2013-08-13 05:31:00,63.5,60.2,29.85,SW,225,0.0,0.0,89,0.00,,---,0.71,VWS V14.01,2013-08-13 09:31:00,
2013-08-13 05:36:00,63.5,60.2,29.85,SW,225,0.0,0.0,89,0.00,,---,0.71,VWS V14.01,2013-08-13 09:36:00,
2013-08-13 05:41:00,63.5,60.2,29.85,SW,225,0.0,0.0,89,0.00,,---,0.71,VWS V14.01,2013-08-13 09:41:00,
2013-08-13 05:46:00,63.3,60.0,29.85,SW,225,0.0,0.0,89,0.00,,---,0.71,VWS V14.01,2013-08-13 09:46:00,
2013-08-13 05:51:00,63.1,59.8,29.85,SW,225,0.0,0.0,89,0.00,,---,0.71,VWS V14.01,2013-08-13 09:51:00,
2013-08-13 05:56:00,63.1,59.8,29.85,SW,225,0.0,0.0,89,0.00,,---,0.71,VWS V14.01,2013-08-13 09:56:00,
2013-08-13 06:01:00,63.3,60.0,29.85,SW,225,0.0,0.0,89,0.00,,---,0.71,VWS V14.01,2013-08-13 10:01:00,
2013-08-13 06:06:00,63.5,60.2,29.85,South,180,0.0,0.0,89,0.00,,---,0.71,VWS V14.01,2013-08-13 10:06:00,
2013-08-13 06:11:00,63.7,60.4,29.85,South,180,0.0,0.0,89,0.00,,---,0.71,VWS V14.01,2013-08-13 10:11:00,
2013-08-13 06:16:00,63.7,60.4,29.85,SSW,202,0.0,0.0,89,0.00,,---,0.71,VWS V14.01,2013-08-13 10:16:00,
2013-08-13 06:21:00,63.7,60.4,29.85,SW,225,0.0,0.0,89,0.00,,---,0.71,VWS V14.01,2013-08-13 10:21:00,
2013-08-13 06:26:00,63.5,60.2,29.82,SW,225,0.0,0.0,89,0.00,,---,0.71,VWS V14.01,2013-08-13 10:26:00,
2013-08-13 06:32:00,63.3,60.0,29.82,SW,225,0.0,0.0,89,0.00,,---,0.71,VWS V14.01,2013-08-13 10:32:00,
2013-08-13 06:37:00,63.3,60.0,29.82,SW,225,0.0,0.0,89,0.00,,---,0.71,VWS V14.01,2013-08-13 10:37:00,
2013-08-13 06:41:00,63.5,60.2,29.85,SW,225,0.0,0.0,89,0.00,,---,0.71,VWS V14.01,2013-08-13 10:41:00,
2013-08-13 06:47:00,63.7,60.4,29.85,South,180,0.0,0.0,89,0.00,,---,0.71,VWS V14.01,2013-08-13 10:47:00,
2013-08-13 06:52:00,63.9,60.6,29.85,SSW,202,0.0,0.0,89,0.00,,---,0.71,VWS V14.01,2013-08-13 10:52:00,
2013-08-13 06:57:00,63.9,60.6,29.85,South,180,0.0,0.0,89,0.00,,---,0.71,VWS V14.01,2013-08-13 10:57:00,
2013-08-13 07:02:00,64.0,60.7,29.85,South,180,0.0,0.0,89,0.00,,---,0.71,VWS V14.01,2013-08-13 11:02:00,
2013-08-13 07:07:00,64.2,60.9,29.85,South,180,0.0,0.0,89,0.00,,---,0.71,VWS V14.01,2013-08-13 11:07:00,
2013-08-13 07:12:00,64.4,61.1,29.85,WSW,248,0.0,0.0,89,0.00,,---,0.71,VWS V14.01,2013-08-13 11:12:00,
2013-08-13 07:17:00,64.4,61.1,29.85,WSW,248,0.0,0.0,89,0.00,,---,0.71,VWS V14.01,2013-08-13 11:17:00,
2013-08-13 07:22:00,64.8,61.5,29.85,WSW,248,0.0,0.0,89,0.00,,---,0.71,VWS V14.01,2013-08-13 11:22:00,
2013-08-13 07:27:00,64.8,61.5,29.85,WSW,248,0.0,0.0,89,0.00,,---,0.71,VWS V14.01,2013-08-13 11:27:00,
2013-08-13 07:32:00,65.1,61.8,29.85,WSW,248,0.0,0.0,89,0.00,,---,0.71,VWS V14.01,2013-08-13 11:32:00,
2013-08-13 07:37:00,65.3,62.0,29.85,SW,225,0.0,0.0,89,0.00,,---,0.04,VWS V14.01,2013-08-13 11:37:00,
2013-08-13 07:42:00,65.3,62.0,29.85,SW,225,0.0,0.0,89,0.00,,---,0.71,VWS V14.01,2013-08-13 11:42:00,
2013-08-13 07:47:00,65.5,62.2,29.85,NE,45,0.0,0.0,89,0.00,,---,0.71,VWS V14.01,2013-08-13 11:47:00,
2013-08-13 07:52:00,65.5,62.2,29.85,NE,45,0.0,0.0,89,0.00,,---,0.71,VWS V14.01,2013-08-13 11:52:00,
2013-08-13 07:57:00,65.5,62.2,29.85,SW,225,0.0,0.0,89,0.00,,---,0.71,VWS V14.01,2013-08-13 11:57:00,
2013-08-13 08:02:00,65.7,62.3,29.85,NW,315,0.0,0.0,89,0.00,,---,0.71,VWS V14.01,2013-08-13 12:02:00,
2013-08-13 08:07:00,65.8,62.5,29.85,NNW,338,0.0,0.0,89,0.00,,---,0.71,VWS V14.01,2013-08-13 12:07:00,
2013-08-13 08:12:00,65.8,62.5,29.85,SW,225,0.0,0.0,89,0.00,,---,0.71,VWS V14.01,2013-08-13 12:12:00,
2013-08-13 08:17:00,66.0,62.7,29.85,NW,315,0.0,0.0,89,0.00,,---,0.71,VWS V14.01,2013-08-13 12:17:00,
2013-08-13 08:22:00,66.2,62.5,29.85,South,180,0.0,0.0,88,0.00,,---,0.71,VWS V14.01,2013-08-13 12:22:00,
2013-08-13 08:27:00,66.4,62.7,29.85,NE,45,0.0,0.0,88,0.00,,---,0.71,VWS V14.01,2013-08-13 12:27:00,
2013-08-13 08:32:00,66.6,62.9,29.85,SE,135,0.0,2.7,88,0.00,,---,0.71,VWS V14.01,2013-08-13 12:32:00,
2013-08-13 08:37:00,66.4,62.7,29.85,West,270,0.0,0.0,88,0.00,,---,0.71,VWS V14.01,2013-08-13 12:37:00,
2013-08-13 08:42:00,66.4,63.0,29.88,West,270,0.0,0.0,89,0.00,,---,0.71,VWS V14.01,2013-08-13 12:42:00,
2013-08-13 08:47:00,66.2,62.9,29.88,SW,225,0.0,0.0,89,0.00,,---,0.71,VWS V14.01,2013-08-13 12:47:00,
2013-08-13 08:52:00,66.0,62.7,29.88,SSW,202,0.0,0.0,89,0.00,,---,0.71,VWS V14.01,2013-08-13 12:52:00,
2013-08-13 08:57:00,65.7,62.3,29.88,SW,225,0.0,0.0,89,0.00,,---,0.71,VWS V14.01,2013-08-13 12:57:00,
2013-08-13 09:02:00,65.3,62.0,29.88,NNE,22,0.0,0.0,89,0.00,,---,0.71,VWS V14.01,2013-08-13 13:02:00,
2013-08-13 09:07:00,65.1,61.8,29.88,NW,315,0.0,0.0,89,0.00,,---,0.71,VWS V14.01,2013-08-13 13:07:00,
2013-08-13 09:12:00,65.1,61.8,29.88,SSW,202,0.0,2.2,89,0.00,,---,0.71,VWS V14.01,2013-08-13 13:12:00,
2013-08-13 09:17:00,64.9,61.6,29.88,West,270,2.2,2.2,89,0.00,,---,0.71,VWS V14.01,2013-08-13 13:17:00,
2013-08-13 09:22:00,64.9,61.6,29.88,East,90,0.0,0.0,89,0.00,,---,0.71,VWS V14.01,2013-08-13 13:22:00,
2013-08-13 09:27:00,65.1,61.8,29.88,East,90,0.0,0.0,89,0.00,,---,0.71,VWS V14.01,2013-08-13 13:27:00,
2013-08-13 09:32:00,64.9,61.6,29.88,West,270,2.7,2.7,89,0.00,,---,0.71,VWS V14.01,2013-08-13 13:32:00,
2013-08-13 09:37:00,64.9,61.6,29.88,SSE,158,0.0,0.0,89,0.00,,---,0.71,VWS V14.01,2013-08-13 13:37:00,
2013-08-13 09:42:00,64.8,61.8,29.88,NW,315,0.0,0.0,90,0.00,,---,0.71,VWS V14.01,2013-08-13 13:42:00,
2013-08-13 09:47:00,64.8,61.8,29.88,SW,225,0.0,0.0,90,0.00,,---,0.71,VWS V14.01,2013-08-13 13:47:00,
2013-08-13 09:52:00,64.6,61.6,29.88,South,180,0.0,2.2,90,0.00,,---,0.71,VWS V14.01,2013-08-13 13:52:00,
2013-08-13 09:57:00,64.4,61.4,29.88,SW,225,0.0,0.0,90,0.00,,---,0.71,VWS V14.01,2013-08-13 13:57:00,
2013-08-13 10:02:00,64.6,61.6,29.88,SSE,158,3.6,3.6,90,0.00,,---,0.71,VWS V14.01,2013-08-13 14:02:00,
2013-08-13 10:07:00,64.4,61.4,29.88,West,270,0.0,0.0,90,0.00,,---,0.71,VWS V14.01,2013-08-13 14:07:00,
2013-08-13 10:12:00,64.4,61.7,29.88,South,180,0.0,0.0,91,0.00,,---,0.71,VWS V14.01,2013-08-13 14:12:00,
2013-08-13 10:17:00,64.8,62.1,29.88,South,180,0.0,0.0,91,0.00,,---,0.71,VWS V14.01,2013-08-13 14:17:00,
2013-08-13 10:22:00,65.1,62.4,29.88,NW,315,0.0,0.0,91,0.00,,---,0.71,VWS V14.01,2013-08-13 14:22:00,
2013-08-13 10:27:00,64.8,62.1,29.91,NW,315,0.0,0.0,91,0.00,,---,0.71,VWS V14.01,2013-08-13 14:27:00,
2013-08-13 10:32:00,64.6,62.2,29.91,SW,225,0.0,0.0,92,0.00,,---,0.71,VWS V14.01,2013-08-13 14:32:00,
2013-08-13 10:37:00,64.6,62.2,29.91,SE,135,0.0,0.0,92,0.00,,---,0.71,VWS V14.01,2013-08-13 14:37:00,
2013-08-13 10:42:00,64.8,62.7,29.91,West,270,0.0,0.0,93,0.00,,---,0.71,VWS V14.01,2013-08-13 14:42:00,
2013-08-13 10:47:00,64.9,63.2,29.91,NW,315,0.0,0.0,94,0.00,,---,0.71,VWS V14.01,2013-08-13 14:47:00,
2013-08-13 10:52:00,65.1,64.0,29.91,South,180,0.0,2.7,96,0.00,,---,0.71,VWS V14.01,2013-08-13 14:52:00,
2013-08-13 10:57:00,65.3,64.4,29.91,SW,225,0.0,4.0,97,0.00,,---,0.71,VWS V14.01,2013-08-13 14:57:00,
2013-08-13 11:02:00,65.3,64.1,29.91,NW,315,3.6,3.6,96,0.00,,---,0.71,VWS V14.01,2013-08-13 15:02:00,
2013-08-13 11:07:00,64.8,63.6,29.91,SE,135,0.0,2.2,96,0.00,,---,0.71,VWS V14.01,2013-08-13 15:07:00,
2013-08-13 11:12:00,64.2,63.1,29.91,West,270,0.0,0.0,96,0.00,,---,0.71,VWS V14.01,2013-08-13 15:12:00,
2013-08-13 11:17:00,63.9,62.4,29.91,SW,225,0.0,0.0,95,0.00,,---,0.71,VWS V14.01,2013-08-13 15:17:00,
2013-08-13 11:22:00,63.5,61.8,29.91,North,0,0.0,0.0,94,0.00,,---,0.71,VWS V14.01,2013-08-13 15:22:00,
2013-08-13 11:27:00,63.5,61.4,29.91,NW,315,0.0,2.7,93,0.00,,---,0.71,VWS V14.01,2013-08-13 15:27:00,
2013-08-13 11:32:00,63.5,61.1,29.91,West,270,0.0,0.0,92,0.00,,---,0.71,VWS V14.01,2013-08-13 15:32:00,
2013-08-13 11:37:00,63.3,60.7,29.91,SE,135,3.6,3.6,91,0.00,,---,0.71,VWS V14.01,2013-08-13 15:37:00,
2013-08-13 11:42:00,63.3,60.0,29.94,SSW,202,0.0,0.0,89,0.00,,---,0.71,VWS V14.01,2013-08-13 15:42:00,
2013-08-13 11:47:00,63.5,59.9,29.94,South,180,0.0,0.0,88,0.00,,---,0.71,VWS V14.01,2013-08-13 15:47:00,
2013-08-13 11:52:00,63.5,59.6,29.94,South,180,0.0,2.2,87,0.00,,---,0.71,VWS V14.01,2013-08-13 15:52:00,
2013-08-13 11:57:00,63.7,59.4,29.94,SW,225,0.0,0.0,86,0.00,,---,0.71,VWS V14.01,2013-08-13 15:57:00,
2013-08-13 12:02:00,63.7,59.4,29.94,East,90,0.0,0.0,86,0.00,,---,0.71,VWS V14.01,2013-08-13 16:02:00,
2013-08-13 12:07:00,63.9,59.3,29.94,NNW,338,0.0,2.7,85,0.00,,---,0.71,VWS V14.01,2013-08-13 16:07:00,
2013-08-13 12:12:00,63.9,58.9,29.94,NW,315,3.1,3.1,84,0.00,,---,0.71,VWS V14.01,2013-08-13 16:12:00,
2013-08-13 12:17:00,63.9,58.6,29.94,West,270,0.0,0.0,83,0.00,,---,0.71,VWS V14.01,2013-08-13 16:17:00,
2013-08-13 12:22:00,64.4,58.8,29.94,SE,135,0.0,0.0,82,0.00,,---,0.71,VWS V14.01,2013-08-13 16:22:00,
2013-08-13 12:27:00,64.8,58.8,29.94,NW,315,0.0,0.0,81,0.00,,---,0.71,VWS V14.01,2013-08-13 16:27:00,
2013-08-13 12:32:00,64.8,58.5,29.94,SW,225,3.6,3.6,80,0.00,,---,0.71,VWS V14.01,2013-08-13 16:32:00,
2013-08-13 12:37:00,64.4,57.0,29.94,North,0,0.0,0.0,77,0.00,,---,0.71,VWS V14.01,2013-08-13 16:37:00,
2013-08-13 12:42:00,64.2,56.9,29.94,North,0,0.0,0.0,77,0.00,,---,0.71,VWS V14.01,2013-08-13 16:42:00,
2013-08-13 12:47:00,64.2,56.9,29.94,SE,135,0.0,0.0,77,0.00,,---,0.71,VWS V14.01,2013-08-13 16:47:00,
2013-08-13 12:52:00,63.9,56.5,29.94,SE,135,0.0,0.0,77,0.00,,---,0.71,VWS V14.01,2013-08-13 16:52:00,
2013-08-13 12:57:00,64.0,56.7,29.94,SE,135,2.2,2.2,77,0.00,,---,0.71,VWS V14.01,2013-08-13 16:57:00,
2013-08-13 13:02:00,64.4,56.7,29.94,NW,315,0.0,0.0,76,0.00,,---,0.71,VWS V14.01,2013-08-13 17:02:00,
2013-08-13 13:07:00,64.8,56.3,29.94,West,270,2.7,2.7,74,0.00,,---,0.71,VWS V14.01,2013-08-13 17:07:00,
2013-08-13 13:12:00,65.1,55.5,29.94,SSE,158,0.0,0.0,71,0.00,,---,0.71,VWS V14.01,2013-08-13 17:12:00,
2013-08-13 13:17:00,65.7,54.4,29.94,SSE,158,0.0,0.0,67,0.00,,---,0.71,VWS V14.01,2013-08-13 17:17:00,
2013-08-13 13:22:00,65.7,52.7,29.94,NW,315,2.2,2.2,63,0.00,,---,0.71,VWS V14.01,2013-08-13 17:22:00,
2013-08-13 13:27:00,66.4,53.8,29.94,West,270,2.2,2.2,64,0.00,,---,0.71,VWS V14.01,2013-08-13 17:27:00,
2013-08-13 13:32:00,66.2,51.9,29.94,NE,45,0.0,0.0,60,0.00,,---,0.71,VWS V14.01,2013-08-13 17:32:00,
2013-08-13 13:37:00,66.0,52.2,29.94,NE,45,0.0,0.0,61,0.00,,---,0.71,VWS V14.01,2013-08-13 17:37:00,
2013-08-13 13:42:00,65.8,52.9,29.94,SE,135,2.7,2.7,63,0.00,,---,0.71,VWS V14.01,2013-08-13 17:42:00,
2013-08-13 13:47:00,65.7,52.3,29.94,SSW,202,0.0,0.0,62,0.00,,---,0.71,VWS V14.01,2013-08-13 17:47:00,
2013-08-13 13:52:00,65.7,52.3,29.94,SSW,202,2.2,2.2,62,0.00,,---,0.71,VWS V14.01,2013-08-13 17:52:00,
2013-08-13 13:57:00,65.3,50.6,29.94,WNW,292,2.7,2.7,59,0.00,,---,0.71,VWS V14.01,2013-08-13 17:57:00,
2013-08-13 14:02:00,65.7,50.0,29.94,NE,45,5.4,5.4,57,0.00,,---,0.71,VWS V14.01,2013-08-13 18:02:00,
2013-08-13 14:07:00,66.2,50.5,29.94,SE,135,0.0,5.4,57,0.00,,---,0.71,VWS V14.01,2013-08-13 18:07:00,
2013-08-13 14:12:00,66.2,49.1,29.94,West,270,2.7,2.7,54,0.00,,---,0.71,VWS V14.01,2013-08-13 18:12:00,
2013-08-13 14:17:00,66.4,48.8,29.94,NW,315,4.0,4.0,53,0.00,,---,0.71,VWS V14.01,2013-08-13 18:17:00,
2013-08-13 14:22:00,66.6,48.9,29.94,West,270,2.7,3.1,53,0.00,,---,0.71,VWS V14.01,2013-08-13 18:22:00,
2013-08-13 14:27:00,67.1,49.9,29.94,SSE,158,2.7,3.6,54,0.00,,---,0.71,VWS V14.01,2013-08-13 18:27:00,
2013-08-13 14:32:00,67.5,51.2,29.94,East,90,0.0,2.2,56,0.00,,---,0.71,VWS V14.01,2013-08-13 18:32:00,
2013-08-13 14:37:00,66.9,48.2,29.94,NW,315,2.2,4.9,51,0.00,,---,0.71,VWS V14.01,2013-08-13 18:37:00,
2013-08-13 14:42:00,66.7,47.5,29.97,East,90,3.1,5.8,50,0.00,,---,0.71,VWS V14.01,2013-08-13 18:42:00,
2013-08-13 14:47:00,67.1,48.4,29.97,SE,135,2.7,3.1,51,0.00,,---,0.71,VWS V14.01,2013-08-13 18:47:00,
2013-08-13 14:52:00,68.0,48.2,29.97,NNW,338,10.1,10.1,49,0.00,,---,0.71,VWS V14.01,2013-08-13 18:52:00,
2013-08-13 14:57:00,68.0,48.7,29.97,South,180,0.0,3.1,50,0.00,,---,0.71,VWS V14.01,2013-08-13 18:57:00,
2013-08-13 15:02:00,67.5,47.7,29.97,North,0,2.7,5.8,49,0.00,,---,0.71,VWS V14.01,2013-08-13 19:02:00,
2013-08-13 15:07:00,68.7,47.7,29.97,SE,135,3.6,10.1,47,0.00,,---,0.71,VWS V14.01,2013-08-13 19:07:00,
2013-08-13 15:12:00,69.4,47.8,29.97,SW,225,6.3,6.3,46,0.00,,---,0.71,VWS V14.01,2013-08-13 19:12:00,
2013-08-13 15:17:00,69.1,48.0,29.97,North,0,3.6,3.6,47,0.00,,---,0.71,VWS V14.01,2013-08-13 19:17:00,
2013-08-13 15:22:00,68.9,47.9,29.97,East,90,4.0,4.9,47,0.00,,---,0.71,VWS V14.01,2013-08-13 19:22:00,
2013-08-13 15:27:00,68.0,45.9,29.97,North,0,2.7,2.7,45,0.00,,---,0.71,VWS V14.01,2013-08-13 19:27:00,
2013-08-13 15:32:00,67.1,46.2,29.97,East,90,0.0,3.6,47,0.00,,---,0.71,VWS V14.01,2013-08-13 19:32:00,
2013-08-13 15:37:00,67.5,46.5,29.97,South,180,0.0,3.6,47,0.00,,---,0.71,VWS V14.01,2013-08-13 19:37:00,
2013-08-13 15:42:00,68.2,46.6,29.97,SW,225,0.0,0.0,46,0.00,,---,0.71,VWS V14.01,2013-08-13 19:42:00,
2013-08-13 15:47:00,68.2,46.0,29.97,North,0,3.6,7.2,45,0.00,,---,0.71,VWS V14.01,2013-08-13 19:47:00,
2013-08-13 15:52:00,68.0,45.9,29.97,NW,315,2.7,4.0,45,0.00,,---,0.71,VWS V14.01,2013-08-13 19:52:00,
2013-08-13 15:57:00,68.0,45.9,29.97,NW,315,3.1,4.0,45,0.00,,---,0.71,VWS V14.01,2013-08-13 19:57:00,
2013-08-13 16:02:00,68.4,46.2,29.97,South,180,2.2,4.9,45,0.00,,---,0.71,VWS V14.01,2013-08-13 20:02:00,
2013-08-13 16:07:00,68.0,45.9,29.97,SSW,202,2.7,3.6,45,0.00,,---,0.71,VWS V14.01,2013-08-13 20:07:00,
2013-08-13 16:12:00,68.4,45.6,29.97,NNW,338,2.7,4.9,44,0.00,,---,0.71,VWS V14.01,2013-08-13 20:12:00,
2013-08-13 16:17:00,67.6,44.4,29.97,SW,225,3.6,8.3,43,0.00,,---,0.71,VWS V14.01,2013-08-13 20:17:00,
2013-08-13 16:22:00,68.4,45.6,29.97,WNW,292,4.0,6.3,44,0.00,,---,0.71,VWS V14.01,2013-08-13 20:22:00,
2013-08-13 16:27:00,67.8,44.5,29.97,South,180,3.6,4.0,43,0.00,,---,0.71,VWS V14.01,2013-08-13 20:27:00,
2013-08-13 16:32:00,67.6,44.4,29.97,NW,315,4.9,4.9,43,0.00,,---,0.71,VWS V14.01,2013-08-13 20:32:00,
2013-08-13 16:37:00,67.3,44.7,29.97,NNE,22,3.6,4.0,44,0.00,,---,0.71,VWS V14.01,2013-08-13 20:37:00,
2013-08-13 16:42:00,67.3,44.7,29.97,West,270,3.6,4.0,44,0.00,,---,0.71,VWS V14.01,2013-08-13 20:42:00,
2013-08-13 16:47:00,67.1,43.9,29.97,NNE,22,3.6,6.3,43,0.00,,---,0.71,VWS V14.01,2013-08-13 20:47:00,
2013-08-13 16:52:00,66.9,43.7,29.97,South,180,2.7,4.9,43,0.00,,---,0.71,VWS V14.01,2013-08-13 20:52:00,
2013-08-13 16:57:00,66.4,43.8,30.00,South,180,5.8,5.8,44,0.00,,---,0.71,VWS V14.01,2013-08-13 20:57:00,
2013-08-13 17:02:00,66.2,43.7,30.00,South,180,2.7,4.0,44,0.00,,---,0.71,VWS V14.01,2013-08-13 21:02:00,
2013-08-13 17:07:00,65.8,42.7,30.00,SE,135,3.1,5.4,43,0.00,,---,0.71,VWS V14.01,2013-08-13 21:07:00,
2013-08-13 17:12:00,65.8,42.7,30.00,North,0,4.0,8.3,43,0.00,,---,0.71,VWS V14.01,2013-08-13 21:12:00,
2013-08-13 17:17:00,65.3,41.6,30.00,ENE,68,2.7,4.0,42,0.00,,---,0.71,VWS V14.01,2013-08-13 21:17:00,
2013-08-13 17:22:00,65.5,42.4,30.00,NW,315,2.7,4.0,43,0.00,,---,0.71,VWS V14.01,2013-08-13 21:22:00,
2013-08-13 17:27:00,65.1,41.5,30.00,West,270,5.8,5.8,42,0.00,,---,0.71,VWS V14.01,2013-08-13 21:27:00,
2013-08-13 17:32:00,64.8,41.2,30.00,SE,135,0.0,6.3,42,0.00,,---,0.71,VWS V14.01,2013-08-13 21:32:00,
2013-08-13 17:37:00,64.2,41.3,30.00,SE,135,0.0,3.6,43,0.00,,---,0.71,VWS V14.01,2013-08-13 21:37:00,
2013-08-13 17:42:00,64.4,42.0,30.00,SW,225,3.6,3.6,44,0.00,,---,0.71,VWS V14.01,2013-08-13 21:42:00,
2013-08-13 17:47:00,64.4,42.0,30.00,ESE,112,2.7,2.7,44,0.00,,---,0.71,VWS V14.01,2013-08-13 21:47:00,
2013-08-13 17:52:00,64.2,42.5,30.00,West,270,4.9,4.9,45,0.00,,---,0.71,VWS V14.01,2013-08-13 21:52:00,
2013-08-13 17:57:00,64.0,42.3,30.00,South,180,3.6,3.6,45,0.00,,---,0.71,VWS V14.01,2013-08-13 21:57:00,
2013-08-13 18:02:00,64.0,42.9,30.00,WSW,248,2.2,3.6,46,0.00,,---,0.71,VWS V14.01,2013-08-13 22:02:00,
2013-08-13 18:07:00,63.7,43.1,30.00,SW,225,3.6,5.8,47,0.00,,---,0.71,VWS V14.01,2013-08-13 22:07:00,
2013-08-13 18:12:00,63.5,42.4,30.00,NNW,338,0.0,3.1,46,0.00,,---,0.71,VWS V14.01,2013-08-13 22:12:00,
2013-08-13 18:17:00,63.7,42.5,30.00,West,270,4.9,7.6,46,0.00,,---,0.71,VWS V14.01,2013-08-13 22:17:00,
2013-08-13 18:22:00,63.5,41.8,30.00,SW,225,3.1,5.4,45,0.00,,---,0.71,VWS V14.01,2013-08-13 22:22:00,
2013-08-13 18:27:00,63.7,41.4,30.00,South,180,3.1,4.9,44,0.00,,---,0.71,VWS V14.01,2013-08-13 22:27:00,
2013-08-13 18:32:00,63.7,42.0,30.00,South,180,2.7,4.9,45,0.00,,---,0.71,VWS V14.01,2013-08-13 22:32:00,
2013-08-13 18:37:00,63.5,41.8,30.00,South,180,2.7,5.8,45,0.00,,---,0.71,VWS V14.01,2013-08-13 22:37:00,
2013-08-13 18:42:00,63.1,41.5,30.00,West,270,3.1,4.9,45,0.00,,---,0.71,VWS V14.01,2013-08-13 22:42:00,
2013-08-13 18:47:00,63.0,41.3,30.00,NNW,338,3.1,3.6,45,0.00,,---,0.71,VWS V14.01,2013-08-13 22:47:00,
2013-08-13 18:52:00,62.6,41.0,30.00,NE,45,6.3,6.3,45,0.00,,---,0.71,VWS V14.01,2013-08-13 22:52:00,
2013-08-13 18:57:00,62.4,40.8,30.00,NW,315,5.4,5.4,45,0.00,,---,0.71,VWS V14.01,2013-08-13 22:57:00,
2013-08-13 19:02:00,62.4,40.8,30.00,SE,135,3.1,7.6,45,0.00,,---,0.71,VWS V14.01,2013-08-13 23:02:00,
2013-08-13 19:07:00,62.4,40.8,30.00,SE,135,2.2,3.6,45,0.00,,---,0.71,VWS V14.01,2013-08-13 23:07:00,
2013-08-13 19:12:00,62.4,41.4,30.00,SW,225,5.4,5.4,46,0.00,,---,0.71,VWS V14.01,2013-08-13 23:12:00,
2013-08-13 19:17:00,62.2,41.8,30.00,NNW,338,5.4,6.7,47,0.00,,---,0.71,VWS V14.01,2013-08-13 23:17:00,
2013-08-13 19:22:00,62.2,42.3,30.00,SE,135,2.2,5.4,48,0.00,,---,0.71,VWS V14.01,2013-08-13 23:22:00,
2013-08-13 19:27:00,62.2,42.3,30.00,SW,225,3.1,4.0,48,0.00,,---,0.71,VWS V14.01,2013-08-13 23:27:00,
2013-08-13 19:32:00,61.9,43.6,30.00,SW,225,3.1,5.4,51,0.00,,---,0.71,VWS V14.01,2013-08-13 23:32:00,
2013-08-13 19:37:00,61.3,43.1,30.00,SE,135,7.6,7.6,51,0.00,,---,0.71,VWS V14.01,2013-08-13 23:37:00,
2013-08-13 19:42:00,61.0,42.2,30.00,SE,135,2.2,5.8,50,0.00,,---,0.71,VWS V14.01,2013-08-13 23:42:00,
2013-08-13 19:47:00,61.0,41.7,30.00,WSW,248,3.6,8.3,49,0.00,,---,0.71,VWS V14.01,2013-08-13 23:47:00,
2013-08-13 19:53:00,60.6,40.8,30.00,NW,315,8.1,8.1,48,0.00,,---,0.71,VWS V14.01,2013-08-13 23:53:00,
2013-08-13 19:58:00,60.6,40.8,30.03,SSE,158,2.7,3.1,48,0.00,,---,0.71,VWS V14.01,2013-08-13 23:58:00,
2013-08-13 20:03:00,60.4,40.1,30.03,ENE,68,4.9,5.8,47,0.00,,---,0.71,VWS V14.01,2013-08-14 00:03:00,
2013-08-13 20:08:00,60.6,38.6,30.03,SE,135,5.8,5.8,44,0.00,,---,0.71,VWS V14.01,2013-08-14 00:08:00,
2013-08-13 20:12:00,60.6,38.6,30.00,SSE,158,0.0,2.2,44,0.00,,---,0.71,VWS V14.01,2013-08-14 00:12:00,
2013-08-13 20:17:00,60.6,39.8,30.00,South,180,2.2,5.4,46,0.00,,---,0.71,VWS V14.01,2013-08-14 00:17:00,
2013-08-13 20:22:00,60.6,39.2,30.00,West,270,4.0,5.8,45,0.00,,---,0.71,VWS V14.01,2013-08-14 00:22:00,
2013-08-13 20:27:00,60.6,39.2,30.00,South,180,3.6,4.0,45,0.00,,---,0.71,VWS V14.01,2013-08-14 00:27:00,
2013-08-13 20:32:00,60.4,39.6,30.00,SE,135,3.1,3.1,46,0.00,,---,0.71,VWS V14.01,2013-08-14 00:32:00,
2013-08-13 20:37:00,60.4,40.1,30.00,SE,135,0.0,5.4,47,0.00,,---,0.71,VWS V14.01,2013-08-14 00:37:00,
2013-08-13 20:42:00,60.3,40.5,30.00,NE,45,2.7,7.2,48,0.00,,---,0.71,VWS V14.01,2013-08-14 00:42:00,
2013-08-13 20:47:00,60.1,39.2,30.00,South,180,2.2,4.9,46,0.00,,---,0.71,VWS V14.01,2013-08-14 00:47:00,
2013-08-13 20:48:00,60.1,39.2,30.00,South,180,2.2,4.9,46,0.00,,---,0.71,VWS V14.01,2013-08-14 00:48:00,
2013-08-13 20:53:00,59.9,39.6,30.00,North,0,2.7,2.7,47,0.00,,---,0.71,VWS V14.01,2013-08-14 00:53:00,
2013-08-13 20:58:00,59.7,39.5,30.00,SE,135,4.9,4.9,47,0.00,,---,0.71,VWS V14.01,2013-08-14 00:58:00,
2013-08-13 21:03:00,59.5,39.3,30.00,SSE,158,2.7,4.9,47,0.00,,---,0.71,VWS V14.01,2013-08-14 01:03:00,
2013-08-13 21:08:00,59.5,38.8,30.00,North,0,2.7,4.9,46,0.00,,---,0.71,VWS V14.01,2013-08-14 01:08:00,
2013-08-13 21:13:00,59.7,37.8,30.00,SE,135,3.1,3.6,44,0.00,,---,0.71,VWS V14.01,2013-08-14 01:13:00,
2013-08-13 21:18:00,59.7,37.8,30.00,NW,315,2.2,4.9,44,0.00,,---,0.71,VWS V14.01,2013-08-14 01:18:00,
2013-08-13 21:23:00,59.7,37.8,30.00,North,0,0.0,3.1,44,0.00,,---,0.71,VWS V14.01,2013-08-14 01:23:00,
2013-08-13 21:28:00,59.7,37.8,30.03,SE,135,2.7,3.1,44,0.00,,---,0.71,VWS V14.01,2013-08-14 01:28:00,
2013-08-13 21:33:00,59.7,38.4,30.03,NW,315,2.2,6.3,45,0.00,,---,0.71,VWS V14.01,2013-08-14 01:33:00,
2013-08-13 21:38:00,59.7,37.2,30.03,North,0,4.0,4.0,43,0.00,,---,0.71,VWS V14.01,2013-08-14 01:38:00,
2013-08-13 21:43:00,59.7,37.2,30.03,SE,135,4.0,4.0,43,0.00,,---,0.71,VWS V14.01,2013-08-14 01:43:00,
2013-08-13 21:48:00,59.5,37.6,30.03,SSE,158,2.7,3.6,44,0.00,,---,0.71,VWS V14.01,2013-08-14 01:48:00,
2013-08-13 21:53:00,59.5,37.6,30.03,NW,315,4.0,4.0,44,0.00,,---,0.71,VWS V14.01,2013-08-14 01:53:00,
2013-08-13 21:58:00,59.5,37.6,30.03,SE,135,2.7,5.4,44,0.00,,---,0.71,VWS V14.01,2013-08-14 01:58:00,
2013-08-13 22:03:00,59.5,38.2,30.03,NW,315,2.7,2.7,45,0.00,,---,0.71,VWS V14.01,2013-08-14 02:03:00,
2013-08-13 22:08:00,59.5,38.2,30.03,North,0,3.1,3.6,45,0.00,,---,0.71,VWS V14.01,2013-08-14 02:08:00,
2013-08-13 22:13:00,59.4,38.6,30.03,NE,45,0.0,0.0,46,0.00,,---,0.71,VWS V14.01,2013-08-14 02:13:00,
2013-08-13 22:18:00,59.2,38.4,30.03,SSE,158,2.7,2.7,46,0.00,,---,0.71,VWS V14.01,2013-08-14 02:18:00,
2013-08-13 22:23:00,59.0,38.3,30.03,North,0,2.2,2.7,46,0.00,,---,0.71,VWS V14.01,2013-08-14 02:23:00,
2013-08-13 22:28:00,58.8,38.1,30.03,ESE,112,0.0,4.5,46,0.00,,---,0.71,VWS V14.01,2013-08-14 02:28:00,
2013-08-13 22:33:00,58.5,37.8,30.03,WNW,292,3.1,3.1,46,0.00,,---,0.71,VWS V14.01,2013-08-14 02:33:00,
2013-08-13 22:38:00,58.3,37.6,30.00,East,90,5.8,5.8,46,0.00,,---,0.71,VWS V14.01,2013-08-14 02:38:00,
2013-08-13 22:43:00,58.5,37.8,30.00,ESE,112,3.1,4.9,46,0.00,,---,0.71,VWS V14.01,2013-08-14 02:43:00,
2013-08-13 22:48:00,58.5,37.2,30.00,SSE,158,2.2,3.1,45,0.00,,---,0.71,VWS V14.01,2013-08-14 02:48:00,
2013-08-13 22:53:00,58.8,37.0,30.00,South,180,0.0,6.3,44,0.00,,---,0.71,VWS V14.01,2013-08-14 02:53:00,
2013-08-13 22:58:00,58.6,36.8,30.00,East,90,3.6,3.6,44,0.00,,---,0.71,VWS V14.01,2013-08-14 02:58:00,
2013-08-13 23:03:00,58.8,37.0,30.00,WNW,292,2.7,4.9,44,0.00,,---,0.71,VWS V14.01,2013-08-14 03:03:00,
2013-08-13 23:08:00,59.0,37.1,30.00,NE,45,3.6,4.0,44,0.00,,---,0.71,VWS V14.01,2013-08-14 03:08:00,
2013-08-13 23:13:00,59.2,37.3,30.00,NE,45,2.2,2.2,44,0.00,,---,0.71,VWS V14.01,2013-08-14 03:13:00,
2013-08-13 23:18:00,59.2,37.3,30.00,West,270,2.7,5.4,44,0.00,,---,0.71,VWS V14.01,2013-08-14 03:18:00,
2013-08-13 23:23:00,59.2,37.9,30.00,NE,45,3.1,3.1,45,0.00,,---,0.71,VWS V14.01,2013-08-14 03:23:00,
2013-08-13 23:28:00,59.2,37.9,30.00,North,0,2.7,4.0,45,0.00,,---,0.71,VWS V14.01,2013-08-14 03:28:00,
2013-08-13 23:33:00,59.4,37.5,30.00,South,180,3.1,4.0,44,0.00,,---,0.71,VWS V14.01,2013-08-14 03:33:00,
2013-08-13 23:38:00,59.4,38.0,30.00,NNW,338,4.0,5.8,45,0.00,,---,0.71,VWS V14.01,2013-08-14 03:38:00,
2013-08-13 23:43:00,59.4,38.0,30.00,South,180,2.7,5.4,45,0.00,,---,0.71,VWS V14.01,2013-08-14 03:43:00,
2013-08-13 23:48:00,59.4,38.0,30.00,North,0,3.6,3.6,45,0.00,,---,0.71,VWS V14.01,2013-08-14 03:48:00,
2013-08-13 23:53:00,59.4,38.6,30.00,East,90,3.1,3.1,46,0.00,,---,0.71,VWS V14.01,2013-08-14 03:53:00,
2013-08-13 23:58:00,59.5,39.3,30.00,NE,45,3.1,4.0,47,0.00,,---,0.71,VWS V14.01,2013-08-14 03:58:00,